FW1785 Weather Reports


time (UTC)temp
C
wind
direction
speed
KPH
gust
KPH
rain 1hr
cm
rain 24hr
cm
rain mn
cm
humidity
%
barometer
mb
20260508141531 22 32 3.2 9.7 0.00 0.00 0.00 57 1041.8
20260508140129 21 23 3.2 17.7 0.00 0.00 0.00 62 1041.7
20260508134528 22 341 3.2 16.1 0.00 0.00 0.00 65 1041.7
20260508133029 22 342 4.8 14.5 0.00 0.00 0.00 64 1041.5
20260508131527 22 339 4.8 14.5 0.00 0.00 0.00 62 1041.7
20260508130027 23 10 3.2 14.5 0.00 0.00 0.00 59 1041.6
20260508124525 24 279 1.6 8.0 0.00 0.00 0.00 50 1041.7
20260508123023 24 327 3.2 6.4 0.00 0.00 0.00 57 1041.8
20260508121521 24 344 3.2 14.5 0.00 0.00 0.00 57 1042.0
20260508120021 24 318 3.2 8.0 0.00 0.00 0.00 55 1042.1
20260508114519 24 355 3.2 9.7 0.00 0.00 0.00 54 1041.9
20260508113018 24 329 3.2 9.7 0.00 0.00 0.00 55 1042.0
20260508111517 23 13 3.2 6.4 0.00 0.00 0.00 55 1042.2
20260508110015 23 5 3.2 12.9 0.00 0.00 0.00 56 1042.2
20260508104516 23 9 3.2 8.0 0.00 0.00 0.00 56 1042.1
20260508103019 23 346 4.8 9.7 0.00 0.00 0.00 55 1042.0
20260508101513 23 333 4.8 16.1 0.00 0.00 0.00 55 1042.1
20260508100020 23 41 6.4 14.5 0.00 0.00 0.00 57 1042.3
20260508094509 23 355 3.2 16.1 0.00 0.00 0.00 57 1042.3
20260508093007 23 26 4.8 17.7 0.00 0.00 0.00 57 1042.5
20260508091505 23 355 6.4 17.7 0.00 0.00 0.00 56 1042.6
20260508090004 23 26 6.4 17.7 0.00 0.00 0.00 52 1042.7
20260508084502 23 338 1.6 14.5 0.00 0.00 0.00 53 1042.6
20260508083108 23 27 4.8 14.5 0.00 0.00 0.00 50 1042.6
20260508081555 22 20 6.4 16.1 0.00 0.00 0.00 51 1042.9
20260508080110 22 39 4.8 14.5 0.00 0.00 0.00 51 1042.8
20260508074548 22 22 1.6 12.9 0.00 0.00 0.00 49 1042.9
20260508073052 22 38 4.8 16.1 0.00 0.00 0.00 49 1042.9
20260508071542 22 51 3.2 14.5 0.00 0.00 0.00 49 1043.0
20260508070035 22 34 3.2 8.0 0.00 0.00 0.00 51 1042.9
20260508064542 22 40 3.2 8.0 0.00 0.00 0.00 51 1043.3
20260508063029 21 57 3.2 9.7 0.00 0.00 0.00 52 1043.2
20260508061523 21 42 1.6 9.7 0.00 0.00 0.00 55 1043.2
20260508060017 20 49 1.6 6.4 0.00 0.00 0.00 64 1043.4
20260508054526 19 49 4.8 6.4 0.00 0.00 0.00 62 1043.4
20260508053009 18 24 1.6 3.2 0.00 0.00 0.00 66 1043.3
20260508051505 17 54 3.2 4.8 0.00 0.00 0.00 71 1043.3
20260508050002 16 15 0.0 1.6 0.00 0.00 0.00 80 1043.2
20260508044558 14 15 0.0 0.0 0.00 0.00 0.00 79 1043.2
20260508043053 13 15 0.0 0.0 0.00 0.00 0.00 83 1043.3
20260508041550 12 293 0.0 3.2 0.00 0.00 0.00 84 1043.2
20260508040053 11 142 0.0 1.6 0.00 0.00 0.00 82 1043.1
20260508034544 10 142 0.0 1.6 0.00 0.00 0.00 83 1042.9
20260508033036 10 101 1.6 4.8 0.00 0.00 0.00 82 1042.9
20260508031533 10 183 1.6 4.8 0.00 0.00 0.00 82 1042.6
20260508030028 10 183 3.2 6.4 0.00 0.00 0.00 81 1042.9
20260508024527 10 175 0.0 6.4 0.00 0.00 0.00 80 1042.7
20260508023024 10 182 3.2 6.4 0.00 0.00 0.00 81 1042.5
20260508021523 10 194 4.8 8.0 0.00 0.00 0.00 81 1042.4
20260508020021 10 177 3.2 8.0 0.00 0.00 0.00 82 1042.2
20260508014521 10 190 4.8 12.9 0.00 0.00 0.00 82 1042.3
20260508013017 10 199 4.8 9.7 0.00 0.00 0.00 82 1042.3
20260508011516 10 190 3.2 9.7 0.00 0.00 0.00 83 1042.4
20260508010015 10 180 1.6 9.7 0.00 0.00 0.00 84 1042.5
20260508004513 10 189 4.8 8.0 0.00 0.00 0.00 84 1042.6
20260508003012 10 194 3.2 6.4 0.00 0.00 0.00 85 1042.9
20260508001513 10 182 3.2 6.4 0.00 0.00 0.00 86 1043.0
20260508000009 11 178 4.8 6.4 0.00 0.00 0.00 87 1042.8
20260507234513 11 185 3.2 6.4 0.00 0.00 0.00 87 1042.9
20260507233013 10 169 1.6 4.8 0.00 0.00 0.00 88 1042.9
20260507231506 10 167 0.0 9.7 0.00 0.00 0.00 88 1043.1
20260507230013 10 186 3.2 6.4 0.00 0.00 0.00 88 1043.0
20260507224507 10 193 1.6 4.8 0.00 0.00 0.00 88 1043.3
20260507223003 10 195 3.2 6.4 0.00 0.00 0.00 88 1043.5
20260507221501 10 196 0.0 4.8 0.00 0.00 0.00 88 1043.5
20260507220100 10 196 3.2 4.8 0.00 0.00 0.00 89 1043.7
20260507214603 10 175 3.2 9.7 0.00 0.00 0.00 89 1043.9
20260507213101 11 180 3.2 8.0 0.00 0.00 0.00 91 1043.8
20260507211602 11 192 4.8 8.0 0.00 0.00 0.00 91 1043.8
20260507210110 11 184 0.0 6.4 0.00 0.00 0.00 92 1043.8
20260507204553 12 180 3.2 6.4 0.00 0.00 0.00 92 1043.9
20260507203052 12 194 3.2 6.4 0.00 0.00 0.00 93 1043.9
20260507201550 12 189 3.2 8.0 0.00 0.00 0.00 92 1043.9
20260507200055 12 179 1.6 8.0 0.00 0.00 0.00 92 1044.0
20260507194556 12 194 4.8 8.0 0.00 0.00 0.00 92 1044.2
20260507193049 13 194 1.6 8.0 0.00 0.00 0.00 92 1044.2
20260507191549 13 204 1.6 4.8 0.00 0.00 0.00 91 1044.2
20260507190056 13 204 0.0 0.0 0.00 0.00 0.00 90 1044.2
20260507184548 14 204 0.0 3.2 0.00 0.00 0.00 90 1044.1
20260507183109 14 204 0.0 1.6 0.00 0.00 0.00 90 1044.1
20260507181545 14 204 0.0 3.2 0.00 0.00 0.00 90 1043.8
20260507180042 15 204 0.0 3.2 0.00 0.00 0.00 89 1043.5
20260507174542 15 204 0.0 4.8 0.00 0.00 0.00 89 1043.3
20260507173047 15 213 0.0 1.6 0.00 0.00 0.00 88 1043.2
20260507171540 15 213 0.0 0.0 0.00 0.00 0.00 87 1043.1
20260507170043 15 213 0.0 3.2 0.00 0.00 0.00 87 1043.1
20260507164555 15 212 0.0 6.4 0.00 0.00 0.00 85 1043.2
20260507163039 16 192 1.6 11.3 0.00 0.00 0.00 82 1043.3
20260507161550 17 44 1.6 6.4 0.00 0.00 0.00 80 1043.0
20260507160037 17 19 0.0 4.8 0.00 0.00 0.00 78 1042.6
20260507154537 17 329 3.2 4.8 0.00 0.00 0.00 78 1042.5
20260507153041 18 277 3.2 6.4 0.00 0.00 0.00 77 1042.5
20260507151537 18 293 1.6 8.0 0.00 0.00 0.00 75 1042.5
20260507150036 18 266 4.8 11.3 0.00 0.00 0.00 74 1042.3
20260507144537 18 286 1.6 8.0 0.00 0.00 0.00 75 1042.4
20260507143039 18 289 4.8 12.9 0.00 0.00 0.00 74 1042.3